Back to catalog

SL-16 DEB

AliveLEO
NORAD 22290·DEBRIS·🇷🇺 Russia

Launched Dec 25, 1992 from Baikonur Cosmodrome

Loading…

Next Passes (next 24 hours)

TLE

FreshSource: Space-Track

Epoch: Sep 14, 2026, 06:44 UTC

1 22290U 92093E   26257.28108821  .00000043  00000-0  77162-4 0  9994
2 22290  71.0467 245.5280 0193248 147.3002 227.4882 13.75409276690767

Track SL-16 DEB in real time with AllMySat

Download on the App Store